Location: Newark
(34.5992°S, 58.3747°W)
Time: 13:02:04
(UTC+00:00)

STARLINK 1052 - Pass Details

Date: 08 December 2019
Orbit: 497 x 498 km, 53.0° (Epoch: 28 January)

Event Time Altitude Azimuth Distance (km) Brightness Sun altitude
Rises 23:54:35 0° 251° (WSW) 2,584 8.6 -10.8°
Reaches altitude 10° 23:58:42 10° 293° (WNW) 1,675 6.5 -11.5°
Maximum altitude 23:59:16 10° 302° (WNW) 1,654 6.3 -11.6°
Drops below altitude 10° 23:59:51 10° 311° (NW) 1,667 6.2 -11.7°
Enters shadow 00:03:21 - 351° (N) 2,356 6.6 -12.3°
